EW2847 Weather Reports


Display with metric or nautical units.
time (UTC)temp
F
wind
direction
speed
MPH
gust
MPH
rain 1hr
in
rain 24hr
in
rain mn
in
humidity
%
barometer
mb
20260508050028 37 236 0.0 1.0 0.00 0.06 0.00 87 1006.8
20260508044529 37 236 0.0 3.0 0.00 0.06 0.00 87 1007.0
20260508043033 37 195 0.0 3.0 0.00 0.06 0.00 86 1006.9
20260508041523 37 209 0.0 2.0 0.00 0.06 0.00 85 1007.0
20260508040030 37 209 0.0 2.0 0.00 0.06 0.00 85 1007.0
20260508034534 37 211 1.0 3.0 0.00 0.06 0.06 84 1006.9
20260508033029 37 211 0.0 2.0 0.00 0.06 0.06 84 1007.0
20260508031520 38 240 0.0 2.0 0.00 0.06 0.06 84 1007.0
20260508030019 38 220 0.0 1.0 0.00 0.06 0.06 82 1007.0
20260508024518 38 223 0.0 2.0 0.00 0.06 0.06 81 1007.0
20260508023018 38 186 0.0 1.0 0.00 0.06 0.06 79 1007.0
20260508021517 39 163 0.0 1.0 0.00 0.06 0.06 79 1007.0
20260508020017 39 276 0.0 1.0 0.00 0.06 0.06 79 1006.9
20260508014516 39 251 0.0 2.0 0.00 0.06 0.06 78 1006.8
20260508013015 39 190 0.0 2.0 0.00 0.06 0.06 78 1006.8
20260508011515 40 167 1.0 3.0 0.00 0.06 0.06 76 1006.7
20260508010026 40 201 0.0 2.0 0.00 0.06 0.06 74 1006.6
20260508004522 41 269 0.0 4.0 0.00 0.06 0.06 73 1006.5
20260508003013 41 248 0.0 2.0 0.00 0.06 0.06 72 1006.4
20260508001513 41 251 0.0 1.0 0.00 0.06 0.06 72 1006.2
20260508000012 42 223 0.0 2.0 0.00 0.06 0.06 73 1006.1
20260507234512 42 228 0.0 2.0 0.00 0.06 0.06 70 1006.1
20260507233010 43 175 2.0 7.0 0.00 0.06 0.06 68 1006.0
20260507231511 44 211 1.0 3.0 0.00 0.06 0.06 64 1006.1
20260507230009 44 242 0.0 4.0 0.00 0.06 0.06 62 1005.9
20260507224513 45 220 0.0 2.0 0.00 0.06 0.06 62 1005.9
20260507223008 45 292 0.0 3.0 0.00 0.06 0.06 55 1005.9
20260507221510 45 271 1.0 3.0 0.00 0.06 0.06 55 1005.8
20260507220006 45 332 2.0 5.0 0.00 0.06 0.06 54 1005.9
20260507214505 45 350 1.0 5.0 0.00 0.06 0.06 55 1005.8
20260507213005 45 350 1.0 4.0 0.00 0.06 0.06 57 1005.8
20260507211504 45 350 0.0 3.0 0.00 0.06 0.06 57 1005.7
20260507210003 45 350 0.0 3.0 0.00 0.06 0.06 59 1005.7
20260507204502 45 350 1.0 4.0 0.00 0.06 0.06 58 1005.7
20260507203103 44 350 1.0 3.0 0.00 0.06 0.06 60 1005.8
20260507201558 44 350 0.0 5.0 0.00 0.06 0.06 61 1005.9
20260507200057 44 350 2.0 6.0 0.00 0.06 0.06 64 1005.9
20260507200010 44 350 3.0 6.0 0.00 0.06 0.06 64 1005.9
20260507194555 44 350 1.0 4.0 0.00 0.06 0.06 61 1005.8
20260507193053 43 350 1.0 3.0 0.00 0.06 0.06 66 1005.9
20260507191553 43 350 1.0 4.0 0.00 0.06 0.06 68 1005.9
20260507190050 42 350 2.0 6.0 0.00 0.06 0.06 69 1006.1
20260507184547 43 350 3.0 6.0 0.00 0.06 0.06 70 1006.1
20260507183049 43 350 1.0 6.0 0.00 0.06 0.06 73 1006.3
20260507181544 42 350 2.0 6.0 0.00 0.06 0.06 74 1006.3
20260507180051 42 350 1.0 4.0 0.00 0.06 0.06 72 1006.3
20260507174538 41 350 1.0 8.0 0.00 0.06 0.06 77 1006.4
20260507173040 40 350 2.0 6.0 0.00 0.06 0.06 80 1006.4
20260507171539 40 350 4.0 8.0 0.00 0.06 0.06 78 1006.6
20260507170033 41 350 2.0 5.0 0.00 0.06 0.06 76 1006.6
20260507164536 42 350 2.0 6.0 0.00 0.06 0.06 78 1006.7
20260507163032 40 350 2.0 6.0 0.00 0.06 0.06 82 1006.9
20260507161535 39 350 3.0 5.0 0.00 0.06 0.06 84 1006.9
20260507160040 39 350 3.0 6.0 0.00 0.06 0.06 85 1007.0
20260507154524 38 350 3.0 8.0 0.00 0.06 0.06 86 1007.0
20260507153021 38 350 2.0 5.0 0.00 0.06 0.06 89 1007.1
20260507151519 38 350 2.0 4.0 0.00 0.06 0.06 90 1007.1
20260507150020 37 350 2.0 4.0 0.00 0.06 0.06 91 1007.2
20260507144526 36 350 2.0 4.0 0.01 0.06 0.06 91 1007.1
20260507143015 36 350 1.0 4.0 0.02 0.06 0.06 91 1007.2
20260507141517 36 350 1.0 4.0 0.02 0.06 0.06 91 1007.2
20260507140011 35 350 1.0 4.0 0.03 0.06 0.06 93 1007.3
20260507134511 35 350 1.0 3.0 0.03 0.05 0.05 93 1007.2
20260507133013 34 350 1.0 3.0 0.03 0.04 0.04 93 1007.3
20260507131510 34 325 1.0 3.0 0.04 0.04 0.04 93 1007.2
20260507130021 34 340 0.0 2.0 0.03 0.03 0.03 94 1007.1
20260507124508 34 323 0.0 2.0 0.02 0.02 0.02 94 1007.1
20260507123008 33 317 0.0 2.0 0.01 0.01 0.01 94 1007.1
20260507121508 33 295 0.0 2.0 0.00 0.00 0.00 94 1007.0
20260507120007 33 296 1.0 3.0 0.00 0.00 0.00 94 1006.9
20260507114506 33 323 0.0 2.0 0.00 0.00 0.00 94 1006.9
20260507113009 33 313 1.0 3.0 0.00 0.00 0.00 94 1006.9
20260507111504 32 331 0.0 3.0 0.00 0.00 0.00 94 1006.8
20260507110009 32 302 0.0 3.0 0.00 0.00 0.00 93 1006.8
20260507104503 32 313 1.0 3.0 0.00 0.00 0.00 93 1006.8
20260507103059 32 325 0.0 3.0 0.00 0.00 0.00 93 1006.8
20260507101559 33 325 0.0 2.0 0.00 0.00 0.00 92 1006.8
20260507100058 33 325 1.0 2.0 0.00 0.00 0.00 92 1006.7
20260507094555 33 311 0.0 2.0 0.00 0.00 0.00 91 1006.8
20260507093053 33 307 0.0 1.0 0.00 0.00 0.00 89 1006.9
20260507091551 33 307 0.0 2.0 0.00 0.00 0.00 89 1007.0
20260507090050 33 307 0.0 1.0 0.00 0.00 0.00 88 1007.1
20260507084550 33 307 0.0 2.0 0.00 0.00 0.00 89 1007.2
20260507083047 34 307 0.0 2.0 0.00 0.00 0.00 88 1007.1
20260507081545 34 310 1.0 3.0 0.00 0.00 0.00 87 1007.1
20260507080043 34 321 0.0 2.0 0.00 0.00 0.00 84 1007.1
20260507074549 34 321 0.0 2.0 0.00 0.00 0.00 83 1007.1
20260507073044 35 321 0.0 2.0 0.00 0.00 0.00 82 1007.1
20260507071539 35 321 0.0 2.0 0.00 0.00 0.00 81 1007.3
20260507070041 35 321 0.0 1.0 0.00 0.00 0.00 82 1007.4
20260507064536 35 321 0.0 1.0 0.00 0.00 0.00 82 1007.3
20260507063051 35 321 0.0 0.0 0.00 0.00 0.00 80 1007.4
20260507061535 35 321 0.0 0.0 0.00 0.00 0.00 80 1007.5
20260507060042 35 321 0.0 1.0 0.00 0.00 0.00 80 1007.6
20260507054531 35 321 0.0 1.0 0.00 0.00 0.00 80 1007.6
20260507053031 35 321 0.0 1.0 0.00 0.00 0.00 79 1007.7
20260507051532 35 321 0.0 1.0 0.00 0.00 0.00 78 1007.7